Regional Weather Roundup
Issued by NWS

Home | Current Version | Previous Version | Graphics & Text | Print | Product List | Glossary On
Versions: 1 2 3 4 5 6 7 8 9 10 11 12 13 14 15 16 17 18 19 20 21 22 23 24 25 26 27 28 29 30 31 32 33 34 35 36 37 38 39 40 41 42 43 44 45 46 47 48 49 50
000
ASUS43 KMKX 310521
RWRWI

WISCONSIN REGIONAL WEATHER ROUNDUP
NATIONAL WEATHER SERVICE MILWAUKEE/SULLIVAN WI
1200 AM CDT SUN AUG 31 2014

NOTE: "FAIR" INDICATES FEW OR NO CLOUDS BELOW 12,000 FEET WITH NO
SIGNIFICANT WEATHER AND/OR OBSTRUCTIONS TO VISIBILITY.

WIZ001-002-006>008-014>016-023>028-310600-
NORTHWEST WISCONSIN

CITY           SKY/WX    TMP DP  RH WIND       PRES   REMARKS
SUPERIOR ARPT  CLOUDY    60  59  97 CALM      29.91S
ASHLAND        FOG       53  52  96 SW3       29.93F VSB 3/4
HAYWARD        CLOUDY    60  57  89 CALM      29.92F
SIREN          CLOUDY    61  58  91 E3        29.91S
RICE LAKE      CLEAR     58  56  94 CALM      29.93S
LADYSMITH      PTCLDY    58  57  96 NE5       29.94S
EAU CLAIRE     FOG       59  59 100 CALM      29.90S VSB 3/4
MENOMONIE      CLEAR     59  58  97 CALM      29.91S
NEW RICHMOND   CLOUDY    61  60  98 SE3       29.90S
OSCEOLA        CLOUDY    63  63 100 E3        29.92S
$$

WIZ003>005-009-010-017-018-310600-
NORTH CENTRAL WISCONSIN

CITY           SKY/WX    TMP DP  RH WIND       PRES   REMARKS
WOODRUFF       MOCLDY    57  55  95 CALM      29.94R FOG
RHINELANDER    CLOUDY    56  55  97 NW3       29.94S
EAGLE RIVER    CLOUDY    55  55 100 CALM      29.93S
LAND O LAKES   CLOUDY    57  56  94 N3        29.94S
PHILLIPS       PTCLDY    57  55  94 NE3       29.93F
TOMAHAWK       MOCLDY    55  53  94 CALM      29.94R
MEDFORD        PTCLDY    55  54  98 CALM      29.93S
MERRILL        MOCLDY    57  56  96 CALM      29.93S
$$

WIZ029-030-035-036-043>047-310600-
CENTRAL WISCONSIN

CITY           SKY/WX    TMP DP  RH WIND       PRES   REMARKS
WAUSAU         CLOUDY    62  58  86 NE3       29.91R
MOSINEE        CLOUDY    63  61  94 N5        29.92F
MARSHFIELD     CLOUDY    64  60  87 NE5       29.92R
STEVENS POINT  CLOUDY    62  59  91 CALM      29.93R
WAUPACA        CLOUDY    67  64  93 N3        29.90F
WAUTOMA        CLOUDY    66  65  97 CALM      29.91R
WISC RAPIDS    CLEAR     64  61  90 NE5       29.91F
CAMP DOUGLAS   MOCLDY    63  63 100 NW2       29.91S
$$

WIZ011>013-019>022-031-037>040-048>050-310600-
NORTHEAST WISCONSIN

CITY           SKY/WX    TMP DP  RH WIND       PRES   REMARKS
ANTIGO         CLOUDY    58  56  94 N6        29.92F
STURGEON BAY   CLOUDY    63  57  82 N6        29.89S
GREEN BAY      CLOUDY    65  62  90 N7        29.89S
MANITOWOC      CLOUDY    67  64  90 N7        29.89S
APPLETON       MOCLDY    63  63 100 N6        29.91S
CLINTONVILLE   CLOUDY    64  61  88 CALM      29.90S
OSHKOSH        PTCLDY    66  63  90 N5        29.89S
$$

WIZ032>034-041-042-053>061-310600-
SOUTHWEST WISCONSIN

CITY           SKY/WX    TMP DP  RH WIND       PRES   REMARKS
LA CROSSE      PTCLDY    66  63  90 CALM      29.90S
SPARTA         CLOUDY    64  62  93 CALM      29.92S
VIROQUA        MOCLDY    64  64 100 E3        29.92S
BOSCOBEL       FOG       67  64  90 CALM      29.90S VSB 3/4
PRAIRIE DU CHI CLEAR     66  64  93 E5        29.89S
PLATTEVILLE    FAIR      67  65  93 CALM      29.92S
$$

WIZ056-057-062-063-064-067-068-310600-
SOUTH CENTRAL WISCONSIN

CITY           SKY/WX    TMP DP  RH WIND       PRES   REMARKS
BARABOO/DELLS  PTCLDY    65  63  91 CALM      29.91S
LONE ROCK      CLOUDY    72  67  84 CALM      29.90S
WATERTOWN      CLEAR     65  65 100 CALM      29.89S
MADISON        PTCLDY    67  65  93 CALM      29.90S
MIDDLETON      FAIR      68  67  98 CALM      29.91S
MONROE         CLEAR     64  63  94 SW7       29.91S
JANESVILLE     CLEAR     68  64  88 CALM      29.90S
$$

WIZ051-052-058>065-066-070>072-310600-
SOUTHEAST WISCONSIN

CITY           SKY/WX    TMP DP  RH WIND       PRES   REMARKS
MILWAUKEE      PTCLDY    71  66  84 SW5       29.89S
WAUKESHA       MOCLDY    66  64  94 W3        29.91R
MILWAUKEE/TIMM PTCLDY    66  64  94 N6        29.90R FOG
RACINE         CLEAR     71  65  81 SW5       29.91R
BURLINGTON     CLEAR     63  62  99 CALM      29.91R FOG
KENOSHA        PTCLDY    67  65  93 SW7       29.90S
FOND DU LAC    PTCLDY    65  63  93 N3        29.90S
SHEBOYGAN      CLEAR     63  62  97 SW3       29.89R
WEST BEND      MOCLDY    64  61  88 CALM      29.90R
JUNEAU         PTCLDY    66  65  94 NW3       29.91S
$$

LSZ147-162-310600-
LAKE SUPERIOR

STATION/POSITION TIME  TEMP    WIND        PRES    WAVE
                       AIR SEA DIR/SP/G            HT/PER
                 (UTC) (F)     (DEG/KT/KT) (MB)    (FT/S)
W MID LAKE BUOY  0450   58 58  270/  4/  6 1012.8F   1
DEVILS ISLAND    0500   60     240/  3/  4 1013.3S
PORT WING        0400   61      CALM  /  2 1013.2S
SAXON HARBOR     0400   58        CALM     1013.2S
$$

LMZ867-665-643>646-310600-
LAKE MICHIGAN

STATION/POSITION TIME  TEMP    WIND        PRES    WAVE
                       AIR SEA DIR/SP/G            HT/PER
                 (UTC) (F)     (DEG/KT/KT) (MB)    (FT/S)
N MID LAKE BUOY  0450   63 65  300/ 16/ 17 1010.4R   3/ 4
NORTHPORT PIER   0400   64     310/ 13/ 17 1011.2S
SISTER BAY       0426   64     330/ 14/ 16   N/A
KEWAUNEE LAKESHO 0500   64     340/  2/  4 1011.4R
SHEBOYGAN LAKESH 0500   69 52  330/  4/  4 1012.2R
ATWATER BUOY     0500   67      10/  4/  4 1013.4R
MILWAUKEE LAKESH 0500   72     240/  4/  5   N/A
S MID LAKE BUOY  0450   71 69  210/  8/ 10 1012.3R   1/ 4
KENOSHA   LAKESH 0500   73     230/  7/  9 1012.2R
$$

TC  - TEMPERATURE IN CELSIUS
VSB - VISIBILITY IN STATUTE MILES
WCI - WIND CHILL INDEX
HX  - HEAT INDEX




USA.gov is the U.S. government's official web portal to all federal, state and local government web resources and services.